Location: Bennemühlen
(52.5740°N, 9.7135°E)
Time: 06:01:16
(UTC+00:00)

A-11 Canister half - Pass Details

Date: 23 February 2026
Orbit: 1512 x 1687 km, 47.2° (Epoch: 5 March)

Event Time Altitude Azimuth Distance (km) Brightness Sun altitude
Rises 18:32:20 0° 216° (SW) 4,928 12.1 -16.4°
Reaches altitude 10° 18:35:46 10° 209° (SSW) 3,946 11.4 -16.9°
Maximum altitude 18:44:50 39° 146° (SE) 2,342 9.6 -18.3°
Enters shadow 18:49:28 26° 100° (E) 2,845 9.8 -19.0°
Drops below altitude 10° 18:53:49 10° 82° (E) 3,906 - -19.6°
Sets 18:57:10 0° 76° (ENE) 4,874 - -20.1°
